Location: Newark
(33.6333°S, 78.8500°W)
Time: 01:49:52
(UTC+00:00)

Tiros 1 - Pass Details

Date: 22 October 2019
Orbit: 630 x 664 km, 48.4° (Epoch: 12 November)

Event Time Altitude Azimuth Distance (km) Brightness Sun altitude
Rises 02:00:38 0° 248° (WSW) 2,934 11.7 -28.4°
Reaches altitude 10° 02:03:31 10° 265° (W) 2,022 10.4 -28.8°
Enters shadow 02:06:13 19° 300° (WNW) 1,527 9.2 -29.3°
Maximum altitude 02:06:47 19° 310° (NW) 1,509 - -29.4°
Drops below altitude 10° 02:10:03 10° 355° (N) 2,015 - -29.9°
Sets 02:12:56 0° 12° (NNE) 2,921 - -30.3°
